Data,"Zdobyte punkty"
04.01.2020,1256
05.01.2020,1730
06.01.2020,2113
07.01.2020,2217
08.01.2020,1113
09.01.2020,1833
10.01.2020,1942
11.01.2020,1286
12.01.2020,1900
13.01.2020,1304
14.01.2020,1849
15.01.2020,1941
16.01.2020,1453
17.01.2020,2465
18.01.2020,2107
19.01.2020,1109
20.01.2020,1813
21.01.2020,1494
22.01.2020,1880
23.01.2020,1537
24.01.2020,1603
25.01.2020,1696
26.01.2020,1189
27.01.2020,995
28.01.2020,1306
29.01.2020,1321
30.01.2020,1757
31.01.2020,1426
01.02.2020,2221
02.02.2020,1617
03.02.2020,1412
04.02.2020,1501
05.02.2020,1427
06.02.2020,1597
07.02.2020,1811
08.02.2020,1727
09.02.2020,1546
10.02.2020,1394
11.02.2020,1460
12.02.2020,1229
13.02.2020,1841
14.02.2020,1275
15.02.2020,1696
16.02.2020,1313
17.02.2020,1307
18.02.2020,745
19.02.2020,1333
20.02.2020,1207
21.02.2020,841
22.02.2020,1070
23.02.2020,912
24.02.2020,776
25.02.2020,996
26.02.2020,636
27.02.2020,652
28.02.2020,799
29.02.2020,1036
01.03.2020,1681
02.03.2020,1269
03.03.2020,1268
04.03.2020,1092
05.03.2020,1282
06.03.2020,1020
07.03.2020,1288
08.03.2020,1181
09.03.2020,1201
10.03.2020,847
11.03.2020,898
12.03.2020,1102
13.03.2020,1103
14.03.2020,916
15.03.2020,796
16.03.2020,672
17.03.2020,510
18.03.2020,477
19.03.2020,581
20.03.2020,376
21.03.2020,415
22.03.2020,468
23.03.2020,320
24.03.2020,373
25.03.2020,438
26.03.2020,290
27.03.2020,621
28.03.2020,331
29.03.2020,348
30.03.2020,152
31.03.2020,320
01.04.2020,589
02.04.2020,597
03.04.2020,652
04.04.2020,591
05.04.2020,743
06.04.2020,298
07.04.2020,395
08.04.2020,536
09.04.2020,350
10.04.2020,622
11.04.2020,416
12.04.2020,411
13.04.2020,395
14.04.2020,303
15.04.2020,323
16.04.2020,406
17.04.2020,481
18.04.2020,443
19.04.2020,440
20.04.2020,367
21.04.2020,512
22.04.2020,302
23.04.2020,419
24.04.2020,446
25.04.2020,612
26.04.2020,494
27.04.2020,301
28.04.2020,236
29.04.2020,435
30.04.2020,269
01.05.2020,649
02.05.2020,767
03.05.2020,796
04.05.2020,571
05.05.2020,646
06.05.2020,822
07.05.2020,521
08.05.2020,650
09.05.2020,975
10.05.2020,748
11.05.2020,660
12.05.2020,832
13.05.2020,869
14.05.2020,1189
15.05.2020,881
16.05.2020,919
17.05.2020,744
18.05.2020,682
19.05.2020,885
20.05.2020,656
21.05.2020,712
22.05.2020,761
23.05.2020,625
24.05.2020,701
25.05.2020,955
26.05.2020,622
27.05.2020,697
28.05.2020,681
29.05.2020,708
30.05.2020,357
31.05.2020,816
01.06.2020,972
02.06.2020,1717
03.06.2020,1562
04.06.2020,1174
05.06.2020,1809
06.06.2020,1082
07.06.2020,2200
08.06.2020,1422
09.06.2020,1639
10.06.2020,1368
11.06.2020,1188
12.06.2020,1073
13.06.2020,1329
14.06.2020,1561
15.06.2020,1468
16.06.2020,1499
17.06.2020,1837
18.06.2020,1494
19.06.2020,1817
20.06.2020,1258
21.06.2020,1573
22.06.2020,1407
23.06.2020,1816
24.06.2020,1222
25.06.2020,1486
26.06.2020,1647
27.06.2020,1436
28.06.2020,758
29.06.2020,1082
30.06.2020,823
01.07.2020,1932
02.07.2020,1269
03.07.2020,2350
04.07.2020,1197
05.07.2020,1386
06.07.2020,1563
07.07.2020,1147
08.07.2020,1722
09.07.2020,1383
10.07.2020,811
11.07.2020,1290
12.07.2020,1038
13.07.2020,732
14.07.2020,1388
15.07.2020,1497
16.07.2020,1036
17.07.2020,1450
18.07.2020,1093
19.07.2020,1545
20.07.2020,1100
21.07.2020,1803
22.07.2020,1196
23.07.2020,1219
24.07.2020,1073
25.07.2020,1193
26.07.2020,956
27.07.2020,1351
28.07.2020,1038
29.07.2020,933
30.07.2020,1394
31.07.2020,1947
01.08.2020,1388
02.08.2020,1160
03.08.2020,1559
04.08.2020,1699
05.08.2020,1546
06.08.2020,1393
07.08.2020,1658
08.08.2020,1458
09.08.2020,1357
10.08.2020,1120
11.08.2020,1318
12.08.2020,1124
13.08.2020,1142
14.08.2020,1146
15.08.2020,780
16.08.2020,704
17.08.2020,1018
18.08.2020,2064
19.08.2020,1773
20.08.2020,1599
21.08.2020,1339
22.08.2020,902
23.08.2020,842
24.08.2020,1208
25.08.2020,1011
26.08.2020,952
27.08.2020,1239
28.08.2020,1450
29.08.2020,1164
30.08.2020,786
31.08.2020,1178
01.09.2020,1693
02.09.2020,1607
03.09.2020,1828
04.09.2020,1463
05.09.2020,1837
06.09.2020,1584
07.09.2020,1497
08.09.2020,1754
09.09.2020,1893
10.09.2020,1927
11.09.2020,2062
12.09.2020,1169
13.09.2020,1536
14.09.2020,1443
15.09.2020,1156
16.09.2020,1150
17.09.2020,1149
18.09.2020,1978
19.09.2020,2046
20.09.2020,1382
21.09.2020,1420
22.09.2020,960
23.09.2020,871
24.09.2020,1347
25.09.2020,1061
26.09.2020,656
27.09.2020,622
28.09.2020,838
29.09.2020,760
30.09.2020,887
01.10.2020,1326
02.10.2020,1613
03.10.2020,1292
04.10.2020,1492
05.10.2020,887
06.10.2020,1808
07.10.2020,1099
08.10.2020,780
09.10.2020,1121
10.10.2020,848
11.10.2020,944
12.10.2020,773
13.10.2020,800
14.10.2020,876
15.10.2020,795
16.10.2020,1133
17.10.2020,694
18.10.2020,1117
19.10.2020,922
20.10.2020,989
21.10.2020,867
22.10.2020,877
23.10.2020,1020
24.10.2020,782
25.10.2020,710
26.10.2020,660
27.10.2020,624
28.10.2020,629
29.10.2020,918
30.10.2020,551
31.10.2020,919
01.11.2020,1018
02.11.2020,1242
03.11.2020,1332
04.11.2020,840
05.11.2020,935
06.11.2020,1401
07.11.2020,1390
08.11.2020,1498
09.11.2020,929
10.11.2020,846
11.11.2020,838
12.11.2020,986
13.11.2020,1327
14.11.2020,1014
15.11.2020,921
16.11.2020,860
17.11.2020,1157
18.11.2020,750
19.11.2020,687
20.11.2020,1142
21.11.2020,940
22.11.2020,1000
23.11.2020,849
24.11.2020,862
25.11.2020,679
26.11.2020,633
27.11.2020,1031
28.11.2020,684
29.11.2020,1116
30.11.2020,859
01.12.2020,1184
02.12.2020,1157
03.12.2020,1319
04.12.2020,1185
05.12.2020,1129
06.12.2020,990
07.12.2020,1168
08.12.2020,1090
09.12.2020,961
10.12.2020,935
11.12.2020,1367
12.12.2020,1043
13.12.2020,1167
14.12.2020,1075
15.12.2020,810
16.12.2020,1093
17.12.2020,922
18.12.2020,1070
19.12.2020,812
20.12.2020,1143
21.12.2020,1126
22.12.2020,1249
23.12.2020,757
24.12.2020,806
25.12.2020,823
26.12.2020,818
27.12.2020,822
28.12.2020,620
29.12.2020,816
30.12.2020,609
31.12.2020,566
01.01.2021,955
02.01.2021,1407
03.01.2021,1615
04.01.2021,1693
05.01.2021,2362
06.01.2021,2219
07.01.2021,2029
08.01.2021,1762
09.01.2021,2006
10.01.2021,2034
11.01.2021,2320
12.01.2021,3726
13.01.2021,3234
14.01.2021,2748
15.01.2021,2061
16.01.2021,2118
17.01.2021,1943
18.01.2021,2212
19.01.2021,2390
20.01.2021,2014
21.01.2021,2472
22.01.2021,2873
23.01.2021,2632
24.01.2021,1792
25.01.2021,2166
26.01.2021,2355
27.01.2021,1594
28.01.2021,1789
29.01.2021,1765
30.01.2021,2027
31.01.2021,2217
01.02.2021,3274
02.02.2021,3234
03.02.2021,2414
04.02.2021,2713
05.02.2021,3079
06.02.2021,2293
07.02.2021,1869
08.02.2021,1947
09.02.2021,2235
10.02.2021,1937
11.02.2021,2400
12.02.2021,2073
13.02.2021,2001
14.02.2021,2093
15.02.2021,1843
16.02.2021,1670
17.02.2021,2004
18.02.2021,1671
19.02.2021,1934
20.02.2021,1450
21.02.2021,1599
22.02.2021,1413
23.02.2021,1501
24.02.2021,1323
25.02.2021,1104
26.02.2021,849
27.02.2021,873
28.02.2021,1395
01.03.2021,1521
02.03.2021,1402
03.03.2021,1894
04.03.2021,1962
05.03.2021,2536
06.03.2021,2347
07.03.2021,1870
08.03.2021,2089
09.03.2021,2102
10.03.2021,1870
11.03.2021,1958
12.03.2021,2340
13.03.2021,1640
14.03.2021,2800
15.03.2021,1706
16.03.2021,2010
17.03.2021,1737
18.03.2021,1668
19.03.2021,3402
20.03.2021,1020
21.03.2021,2444
22.03.2021,1487
23.03.2021,1831
24.03.2021,2222
25.03.2021,1113
26.03.2021,1703
27.03.2021,1484
28.03.2021,1271
29.03.2021,813
30.03.2021,1451
31.03.2021,2219
01.04.2021,1584
02.04.2021,3885
03.04.2021,2472
04.04.2021,2429
05.04.2021,2314
06.04.2021,2550
07.04.2021,2462
08.04.2021,1975
09.04.2021,2057
10.04.2021,1504
11.04.2021,3505
12.04.2021,2985
13.04.2021,2582
14.04.2021,2558
15.04.2021,1996
16.04.2021,1659
17.04.2021,4365
18.04.2021,5278
19.04.2021,3365
20.04.2021,2092
21.04.2021,3477
22.04.2021,1960
23.04.2021,2637
24.04.2021,1580
25.04.2021,2326
26.04.2021,1309
27.04.2021,2013
28.04.2021,1561
29.04.2021,878
30.04.2021,954
01.05.2021,2514
02.05.2021,2124
03.05.2021,1504
04.05.2021,1244
05.05.2021,1030
06.05.2021,1038
07.05.2021,2031
08.05.2021,2305
09.05.2021,1583
10.05.2021,1313
11.05.2021,2198
12.05.2021,1142
13.05.2021,2138
14.05.2021,1381
15.05.2021,1316
16.05.2021,1174
17.05.2021,2076
18.05.2021,1027
19.05.2021,1885
20.05.2021,1133
21.05.2021,2218
22.05.2021,837
23.05.2021,883
24.05.2021,868
25.05.2021,879
26.05.2021,1155
27.05.2021,642
28.05.2021,805
29.05.2021,646
30.05.2021,657
31.05.2021,666
01.06.2021,1129
02.06.2021,625
03.06.2021,1116
04.06.2021,726
05.06.2021,1459
06.06.2021,1196
07.06.2021,875
08.06.2021,863
09.06.2021,763
10.06.2021,1240
11.06.2021,975
12.06.2021,1414
13.06.2021,1699
14.06.2021,1027
15.06.2021,797
16.06.2021,864
17.06.2021,834
18.06.2021,957
19.06.2021,865
20.06.2021,1148
21.06.2021,873
22.06.2021,945
23.06.2021,639
24.06.2021,883
25.06.2021,660
26.06.2021,709
27.06.2021,634
28.06.2021,881
29.06.2021,514
30.06.2021,789
01.07.2021,987
02.07.2021,1438
03.07.2021,1096
04.07.2021,789
05.07.2021,1337
06.07.2021,1225
07.07.2021,1616
08.07.2021,1012
09.07.2021,870
10.07.2021,953
11.07.2021,889
12.07.2021,672
13.07.2021,656
14.07.2021,921
15.07.2021,582
16.07.2021,640
17.07.2021,920
18.07.2021,943
19.07.2021,1212
20.07.2021,956
21.07.2021,814
22.07.2021,697
23.07.2021,1181
24.07.2021,887
25.07.2021,768
26.07.2021,567
27.07.2021,807
28.07.2021,588
29.07.2021,588
30.07.2021,593
31.07.2021,1454
01.08.2021,1466
02.08.2021,1575
03.08.2021,1624
04.08.2021,1101
05.08.2021,1167
06.08.2021,1137
07.08.2021,1311
08.08.2021,957
09.08.2021,948
10.08.2021,1099
11.08.2021,463
12.08.2021,1197
13.08.2021,1127
14.08.2021,1234
15.08.2021,998
16.08.2021,1052
17.08.2021,1409
18.08.2021,1204
19.08.2021,1102
20.08.2021,715
21.08.2021,818
22.08.2021,877
23.08.2021,751
24.08.2021,654
25.08.2021,1029
26.08.2021,850
27.08.2021,1950
28.08.2021,1348
29.08.2021,829
30.08.2021,6347
31.08.2021,1203
01.09.2021,1240
02.09.2021,2256
03.09.2021,1889
04.09.2021,2510
05.09.2021,1762
06.09.2021,987
07.09.2021,1716
08.09.2021,1857
09.09.2021,912
10.09.2021,1398
11.09.2021,910
12.09.2021,1345
13.09.2021,1140
14.09.2021,862
15.09.2021,1035
16.09.2021,875
17.09.2021,2537
18.09.2021,2078
19.09.2021,1789
20.09.2021,950
21.09.2021,1567
22.09.2021,1214
23.09.2021,554
24.09.2021,1087
25.09.2021,2076
26.09.2021,2053
27.09.2021,673
28.09.2021,385
29.09.2021,939
30.09.2021,686
01.10.2021,996
02.10.2021,1693
03.10.2021,1060
04.10.2021,1186
05.10.2021,864
06.10.2021,1099
07.10.2021,1071
08.10.2021,1885
09.10.2021,1037
10.10.2021,1064
11.10.2021,889
12.10.2021,882
13.10.2021,768
14.10.2021,750
15.10.2021,1253
16.10.2021,2011
17.10.2021,920
18.10.2021,1196
19.10.2021,852
20.10.2021,659
21.10.2021,557
22.10.2021,999
23.10.2021,1052
24.10.2021,643
25.10.2021,650
26.10.2021,752
27.10.2021,548
28.10.2021,1275
29.10.2021,819
30.10.2021,757
31.10.2021,854
01.11.2021,917
02.11.2021,1076
03.11.2021,1173
04.11.2021,1099
05.11.2021,1457
06.11.2021,1331
07.11.2021,730
08.11.2021,835
09.11.2021,630
10.11.2021,656
11.11.2021,1036
12.11.2021,1033
13.11.2021,885
14.11.2021,984
15.11.2021,752
16.11.2021,815
17.11.2021,531
18.11.2021,635
19.11.2021,897
20.11.2021,1153
21.11.2021,1270
22.11.2021,747
23.11.2021,700
24.11.2021,736
25.11.2021,918
26.11.2021,663
27.11.2021,1177
28.11.2021,729
29.11.2021,566
30.11.2021,718
01.12.2021,1054
02.12.2021,902
03.12.2021,1312
04.12.2021,1176
05.12.2021,1205
06.12.2021,905
07.12.2021,1224
08.12.2021,1319
09.12.2021,1044
10.12.2021,1705
11.12.2021,962
12.12.2021,1161
13.12.2021,1074
14.12.2021,927
15.12.2021,944
16.12.2021,647
17.12.2021,873
18.12.2021,884
19.12.2021,1106
20.12.2021,825
21.12.2021,750
22.12.2021,787
23.12.2021,701
24.12.2021,448
25.12.2021,435
26.12.2021,597
27.12.2021,588
28.12.2021,909
29.12.2021,896
30.12.2021,698
31.12.2021,779
01.01.2022,1908
02.01.2022,1308
03.01.2022,1401
04.01.2022,1448
05.01.2022,1237
06.01.2022,1213
07.01.2022,1093
08.01.2022,1230
09.01.2022,1062
10.01.2022,1219
11.01.2022,1211
12.01.2022,1215
13.01.2022,1353
14.01.2022,1585
15.01.2022,1410
16.01.2022,999
17.01.2022,1204
18.01.2022,1072
19.01.2022,1162
20.01.2022,728
21.01.2022,1195
22.01.2022,995
23.01.2022,764
24.01.2022,803
25.01.2022,628
26.01.2022,740
27.01.2022,1231
28.01.2022,769
29.01.2022,991
30.01.2022,773
31.01.2022,649
01.02.2022,1065
02.02.2022,1924
03.02.2022,2189
04.02.2022,1742
05.02.2022,953
14.02.2022,422
15.02.2022,1079
16.02.2022,978
17.02.2022,737
18.02.2022,1135
19.02.2022,1540
20.02.2022,940
21.02.2022,881
22.02.2022,781
23.02.2022,806
24.02.2022,956
25.02.2022,986
26.02.2022,792
27.02.2022,788
28.02.2022,479
01.03.2022,954
02.03.2022,841
03.03.2022,972
04.03.2022,785
05.03.2022,1000
06.03.2022,675
07.03.2022,656
08.03.2022,1090
09.03.2022,614
10.03.2022,712
11.03.2022,1153
12.03.2022,995
13.03.2022,877
14.03.2022,512
15.03.2022,575
16.03.2022,664
17.03.2022,733
18.03.2022,621
19.03.2022,853
20.03.2022,607
21.03.2022,566
22.03.2022,430
23.03.2022,567
24.03.2022,507
25.03.2022,557
26.03.2022,689
27.03.2022,456
28.03.2022,350
29.03.2022,565
30.03.2022,329
31.03.2022,658
01.04.2022,1076
02.04.2022,1345
03.04.2022,1123
04.04.2022,1246
05.04.2022,1038
06.04.2022,974
07.04.2022,880
08.04.2022,1348
09.04.2022,1025
10.04.2022,779
11.04.2022,925
12.04.2022,696
13.04.2022,778
14.04.2022,617
15.04.2022,843
16.04.2022,883
17.04.2022,903
18.04.2022,1023
19.04.2022,1076
20.04.2022,843
21.04.2022,693
22.04.2022,901
23.04.2022,849
24.04.2022,724
25.04.2022,819
26.04.2022,412
27.04.2022,693
28.04.2022,466
29.04.2022,363
30.04.2022,477
01.05.2022,905
02.05.2022,912
03.05.2022,1170
04.05.2022,769
05.05.2022,804
06.05.2022,1043
07.05.2022,977
08.05.2022,670
09.05.2022,702
10.05.2022,748
11.05.2022,588
12.05.2022,661
13.05.2022,669
14.05.2022,845
15.05.2022,888
16.05.2022,441
17.05.2022,917
18.05.2022,604
19.05.2022,652
20.05.2022,509
21.05.2022,843
22.05.2022,850
23.05.2022,747
24.05.2022,424
25.05.2022,469
26.05.2022,547
27.05.2022,572
28.05.2022,412
29.05.2022,402
30.05.2022,413
31.05.2022,438
01.06.2022,1059
02.06.2022,997
03.06.2022,785
04.06.2022,853
05.06.2022,769
06.06.2022,803
07.06.2022,925
08.06.2022,653
09.06.2022,950
10.06.2022,639
11.06.2022,940
12.06.2022,788
13.06.2022,794
14.06.2022,736
15.06.2022,669
16.06.2022,737
17.06.2022,750
18.06.2022,629
19.06.2022,569
20.06.2022,582
21.06.2022,557
22.06.2022,749
23.06.2022,771
24.06.2022,899
25.06.2022,438
26.06.2022,504
27.06.2022,508
28.06.2022,448
29.06.2022,386
30.06.2022,633
01.07.2022,881
02.07.2022,1005
03.07.2022,746
04.07.2022,804
05.07.2022,823
06.07.2022,878
07.07.2022,655
08.07.2022,859
09.07.2022,633
10.07.2022,872
11.07.2022,1257
12.07.2022,948
13.07.2022,904
14.07.2022,953
15.07.2022,877
16.07.2022,1026
17.07.2022,820
18.07.2022,829
19.07.2022,626
20.07.2022,941
21.07.2022,683
22.07.2022,735
23.07.2022,571
24.07.2022,559
25.07.2022,330
26.07.2022,567
27.07.2022,535
28.07.2022,504
29.07.2022,474
30.07.2022,324
31.07.2022,455
01.08.2022,811
02.08.2022,1070
03.08.2022,1224
04.08.2022,646
05.08.2022,696
06.08.2022,814
07.08.2022,830
08.08.2022,612
09.08.2022,805
10.08.2022,586
11.08.2022,666
12.08.2022,923
13.08.2022,613
14.08.2022,886
15.08.2022,659
16.08.2022,742
17.08.2022,591
18.08.2022,697
19.08.2022,709
20.08.2022,741
21.08.2022,579
22.08.2022,565
23.08.2022,560
24.08.2022,605
25.08.2022,613
26.08.2022,802
27.08.2022,396
28.08.2022,668
29.08.2022,460
30.08.2022,458
31.08.2022,386
01.09.2022,904
02.09.2022,1065
03.09.2022,1199
04.09.2022,622
05.09.2022,761
06.09.2022,1062
07.09.2022,967
08.09.2022,923
09.09.2022,956
10.09.2022,917
11.09.2022,699
12.09.2022,679
13.09.2022,575
14.09.2022,807
15.09.2022,660
16.09.2022,1014
17.09.2022,1016
18.09.2022,652
19.09.2022,512
20.09.2022,535
21.09.2022,483
22.09.2022,518
23.09.2022,323
24.09.2022,457
25.09.2022,780
26.09.2022,290
27.09.2022,377
28.09.2022,337
29.09.2022,506
30.09.2022,535
01.10.2022,1157
02.10.2022,947
03.10.2022,1028
04.10.2022,1049
05.10.2022,1007
06.10.2022,978
07.10.2022,638
08.10.2022,983
09.10.2022,1014
10.10.2022,715
11.10.2022,864
12.10.2022,718
13.10.2022,1021
14.10.2022,898
15.10.2022,693
16.10.2022,892
17.10.2022,752
18.10.2022,891
19.10.2022,836
20.10.2022,997
21.10.2022,899
22.10.2022,435
23.10.2022,664
24.10.2022,459
25.10.2022,449
26.10.2022,456
27.10.2022,479
28.10.2022,453
29.10.2022,402
30.10.2022,310
31.10.2022,456
01.11.2022,1136
02.11.2022,722
03.11.2022,808
04.11.2022,809
05.11.2022,1077
06.11.2022,770
07.11.2022,914
08.11.2022,754
09.11.2022,797
10.11.2022,927
11.11.2022,741
12.11.2022,619
13.11.2022,744
14.11.2022,777
15.11.2022,609
16.11.2022,504
17.11.2022,531
18.11.2022,645
19.11.2022,768
20.11.2022,768
21.11.2022,844
22.11.2022,651
23.11.2022,380
24.11.2022,504
25.11.2022,744
26.11.2022,500
27.11.2022,445
28.11.2022,480
29.11.2022,297
30.11.2022,364
01.12.2022,886
02.12.2022,533
03.12.2022,1243
04.12.2022,714
05.12.2022,763
06.12.2022,521
07.12.2022,883
08.12.2022,504
09.12.2022,462
10.12.2022,674
11.12.2022,519
12.12.2022,643
13.12.2022,836
14.12.2022,546
15.12.2022,610
16.12.2022,745
17.12.2022,596
18.12.2022,602
19.12.2022,427
20.12.2022,494
21.12.2022,554
22.12.2022,550
23.12.2022,536
24.12.2022,400
25.12.2022,595
26.12.2022,602
27.12.2022,358
28.12.2022,569
29.12.2022,631
30.12.2022,363
31.12.2022,651
01.01.2023,876
02.01.2023,859
03.01.2023,542
04.01.2023,707
05.01.2023,782
06.01.2023,884
07.01.2023,505
08.01.2023,634
09.01.2023,660
10.01.2023,678
11.01.2023,740
12.01.2023,625
13.01.2023,659
14.01.2023,885
15.01.2023,830
16.01.2023,669
17.01.2023,856
18.01.2023,727
19.01.2023,1030
20.01.2023,567
21.01.2023,732
22.01.2023,740
23.01.2023,717
24.01.2023,565
25.01.2023,572
26.01.2023,665
27.01.2023,728
28.01.2023,417
29.01.2023,583
30.01.2023,367
31.01.2023,517
01.02.2023,825
02.02.2023,880
03.02.2023,752
04.02.2023,887
05.02.2023,917
06.02.2023,682
07.02.2023,585
08.02.2023,757
09.02.2023,762
10.02.2023,684
11.02.2023,729
12.02.2023,823
13.02.2023,686
14.02.2023,478
15.02.2023,717
16.02.2023,426
17.02.2023,539
18.02.2023,639
19.02.2023,374
20.02.2023,672
21.02.2023,407
22.02.2023,414
23.02.2023,443
24.02.2023,314
25.02.2023,282
26.02.2023,344
27.02.2023,244
28.02.2023,420
01.03.2023,817
02.03.2023,774
03.03.2023,964
04.03.2023,1009
05.03.2023,749
06.03.2023,742
07.03.2023,797
08.03.2023,609
09.03.2023,724
10.03.2023,810
11.03.2023,1201
12.03.2023,777
13.03.2023,618
14.03.2023,670
15.03.2023,610
16.03.2023,646
17.03.2023,455
18.03.2023,510
19.03.2023,429
20.03.2023,447
21.03.2023,587
22.03.2023,337
23.03.2023,527
24.03.2023,377
25.03.2023,471
26.03.2023,347
27.03.2023,271
28.03.2023,307
29.03.2023,276
30.03.2023,341
31.03.2023,439
01.04.2023,935
02.04.2023,998
03.04.2023,775
04.04.2023,681
05.04.2023,854
06.04.2023,571
07.04.2023,408
08.04.2023,689
09.04.2023,804
10.04.2023,479
11.04.2023,747
12.04.2023,465
13.04.2023,609
14.04.2023,500
15.04.2023,456
16.04.2023,703
17.04.2023,495
18.04.2023,511
19.04.2023,432
20.04.2023,423
21.04.2023,432
22.04.2023,689
23.04.2023,526
24.04.2023,349
25.04.2023,279
26.04.2023,319
27.04.2023,351
28.04.2023,280
29.04.2023,432
30.04.2023,307
01.05.2023,947
02.05.2023,714
03.05.2023,867
04.05.2023,818
05.05.2023,781
06.05.2023,1013
07.05.2023,680
08.05.2023,618
09.05.2023,638
10.05.2023,655
11.05.2023,604
12.05.2023,517
13.05.2023,587
14.05.2023,580
15.05.2023,473
16.05.2023,469
17.05.2023,434
18.05.2023,321
19.05.2023,358
20.05.2023,470
21.05.2023,597
22.05.2023,349
23.05.2023,384
24.05.2023,484
25.05.2023,414
26.05.2023,361
27.05.2023,532
28.05.2023,334
29.05.2023,207
30.05.2023,372
31.05.2023,614
01.06.2023,649
02.06.2023,992
03.06.2023,844
04.06.2023,940
05.06.2023,644
06.06.2023,581
07.06.2023,605
08.06.2023,764
09.06.2023,458
10.06.2023,510
11.06.2023,584
12.06.2023,432
13.06.2023,690
14.06.2023,594
15.06.2023,552
16.06.2023,504
17.06.2023,507
18.06.2023,503
19.06.2023,553
20.06.2023,503
21.06.2023,392
22.06.2023,603
23.06.2023,484
24.06.2023,461
25.06.2023,441
26.06.2023,306
27.06.2023,384
28.06.2023,374
29.06.2023,410
30.06.2023,339
01.07.2023,889
02.07.2023,516
03.07.2023,663
04.07.2023,634
05.07.2023,817
06.07.2023,661
07.07.2023,701
08.07.2023,682
09.07.2023,308
10.07.2023,675
11.07.2023,637
12.07.2023,632
13.07.2023,618
14.07.2023,544
15.07.2023,362
16.07.2023,450
17.07.2023,315
18.07.2023,522
19.07.2023,427
20.07.2023,834
21.07.2023,877
22.07.2023,567
23.07.2023,453
24.07.2023,548
25.07.2023,587
26.07.2023,444
27.07.2023,687
28.07.2023,409
29.07.2023,412
30.07.2023,342
31.07.2023,414
01.08.2023,797
02.08.2023,801
03.08.2023,657
04.08.2023,557
05.08.2023,772
06.08.2023,649
07.08.2023,610
08.08.2023,626
09.08.2023,655
10.08.2023,672
11.08.2023,574
12.08.2023,590
13.08.2023,687
14.08.2023,476
15.08.2023,647
16.08.2023,497
17.08.2023,392
18.08.2023,479
19.08.2023,472
20.08.2023,479
21.08.2023,485
22.08.2023,305
23.08.2023,384
24.08.2023,286
25.08.2023,397
26.08.2023,416
27.08.2023,245
28.08.2023,284
29.08.2023,327
30.08.2023,305
31.08.2023,432
01.09.2023,780
02.09.2023,1002
03.09.2023,909
04.09.2023,648
05.09.2023,522
06.09.2023,617
07.09.2023,669
08.09.2023,715
09.09.2023,629
10.09.2023,601
11.09.2023,589
12.09.2023,517
13.09.2023,617
14.09.2023,604
15.09.2023,402
16.09.2023,790
17.09.2023,642
18.09.2023,660
19.09.2023,560
20.09.2023,522
21.09.2023,528
22.09.2023,641
23.09.2023,534
24.09.2023,399
25.09.2023,346
26.09.2023,447
27.09.2023,400
28.09.2023,344
29.09.2023,324
30.09.2023,363
01.10.2023,1082
02.10.2023,925
03.10.2023,924
04.10.2023,869
05.10.2023,672
06.10.2023,687
07.10.2023,744
08.10.2023,817
09.10.2023,657
10.10.2023,559
11.10.2023,559
12.10.2023,677
13.10.2023,547
14.10.2023,610
15.10.2023,669
16.10.2023,612
17.10.2023,672
18.10.2023,664
19.10.2023,478
20.10.2023,577
21.10.2023,599
22.10.2023,572
23.10.2023,560
24.10.2023,445
25.10.2023,382
26.10.2023,572
27.10.2023,462
28.10.2023,538
29.10.2023,634
30.10.2023,342
31.10.2023,492
01.11.2023,837
02.11.2023,905
03.11.2023,1102
04.11.2023,864
05.11.2023,904
06.11.2023,658
07.11.2023,688
08.11.2023,758
09.11.2023,631
10.11.2023,627
11.11.2023,642
12.11.2023,727
13.11.2023,718
14.11.2023,698
15.11.2023,598
16.11.2023,498
17.11.2023,599
18.11.2023,525
19.11.2023,553
20.11.2023,485
21.11.2023,452
22.11.2023,427
23.11.2023,596
24.11.2023,322
25.11.2023,461
26.11.2023,404
27.11.2023,355
28.11.2023,247
29.11.2023,388
30.11.2023,407
01.12.2023,946
02.12.2023,970
03.12.2023,942
04.12.2023,657
05.12.2023,712
06.12.2023,797
07.12.2023,643
08.12.2023,574
09.12.2023,742
10.12.2023,576
11.12.2023,557
12.12.2023,488
13.12.2023,504
14.12.2023,459
15.12.2023,577
16.12.2023,651
17.12.2023,460
18.12.2023,502
19.12.2023,512
20.12.2023,392
21.12.2023,565
22.12.2023,472
23.12.2023,512
24.12.2023,304
25.12.2023,432
26.12.2023,197
27.12.2023,334
28.12.2023,409
29.12.2023,232
30.12.2023,532
31.12.2023,644
01.01.2024,718
02.01.2024,1053
03.01.2024,912
04.01.2024,750
05.01.2024,737
06.01.2024,682
07.01.2024,807
08.01.2024,797
09.01.2024,767
10.01.2024,602
11.01.2024,600
12.01.2024,709
13.01.2024,937
14.01.2024,848
15.01.2024,712
16.01.2024,727
17.01.2024,830
18.01.2024,679
19.01.2024,711
20.01.2024,587
21.01.2024,630
22.01.2024,353
23.01.2024,497
24.01.2024,567
25.01.2024,504
26.01.2024,672
27.01.2024,602
28.01.2024,509
29.01.2024,412
30.01.2024,367
31.01.2024,545
01.02.2024,1021
02.02.2024,837
03.02.2024,1000
04.02.2024,856
05.02.2024,797
06.02.2024,895
07.02.2024,825
08.02.2024,782
09.02.2024,1167
10.02.2024,679
11.02.2024,753
12.02.2024,572
13.02.2024,872
14.02.2024,750
15.02.2024,747
16.02.2024,720
17.02.2024,797
18.02.2024,641
19.02.2024,492
20.02.2024,782
21.02.2024,415
22.02.2024,443
23.02.2024,447
24.02.2024,412
25.02.2024,410
26.02.2024,260
27.02.2024,187
28.02.2024,243
29.02.2024,597
01.03.2024,1034
02.03.2024,924
03.03.2024,828
04.03.2024,765
05.03.2024,1172
06.03.2024,912
07.03.2024,714
08.03.2024,587
09.03.2024,935
10.03.2024,653
11.03.2024,575
12.03.2024,680
13.03.2024,735
14.03.2024,640
15.03.2024,752
16.03.2024,593
17.03.2024,706
18.03.2024,507
19.03.2024,385
20.03.2024,495
21.03.2024,543
22.03.2024,557
23.03.2024,502
24.03.2024,478
25.03.2024,487
26.03.2024,369
27.03.2024,402
28.03.2024,302
29.03.2024,362
30.03.2024,357
31.03.2024,418
01.04.2024,884
02.04.2024,920
03.04.2024,837
04.04.2024,709
05.04.2024,777
06.04.2024,1069
07.04.2024,623
08.04.2024,667
09.04.2024,525
10.04.2024,647
11.04.2024,532
12.04.2024,602
13.04.2024,668
14.04.2024,698
15.04.2024,612
16.04.2024,249
